Time,TemperatureF,DewpointF,PressureIn,WindDirection,WindDirectionDegrees,WindSpeedMPH,WindSpeedGustMPH,Humidity,HourlyPrecipIn,Conditions,Clouds,dailyrainin,SoftwareType,DateUTC
2013-08-25 00:01:00,60.3,56.4,30.32,East,98,0.0,1.0,87,0.00,,CLR,0.00,VWS V14.01,2013-08-25 04:01:00,
2013-08-25 00:02:00,60.2,56.3,30.32,East,98,1.0,1.0,87,0.00,,CLR,0.00,VWS V14.01,2013-08-25 04:02:00,
2013-08-25 00:07:00,60.0,56.4,30.32,NNE,19,1.0,2.0,88,0.00,,CLR,0.00,VWS V14.01,2013-08-25 04:07:00,
2013-08-25 00:12:00,59.8,56.2,30.32,NNE,19,0.0,2.0,88,0.00,,CLR,0.00,VWS V14.01,2013-08-25 04:12:00,
2013-08-25 00:17:00,59.6,56.0,30.31,NNE,19,0.0,2.0,88,0.00,,CLR,0.00,VWS V14.01,2013-08-25 04:17:00,
2013-08-25 00:22:00,59.4,56.2,30.31,NNE,19,0.0,2.0,89,0.00,,CLR,0.00,VWS V14.01,2013-08-25 04:22:00,
2013-08-25 00:27:00,59.2,56.0,30.31,NNE,20,2.0,2.0,89,0.00,,CLR,0.00,VWS V14.01,2013-08-25 04:27:00,
2013-08-25 00:32:00,59.1,55.9,30.32,NNE,20,0.0,0.0,89,0.00,,CLR,0.00,VWS V14.01,2013-08-25 04:32:00,
2013-08-25 00:37:00,59.0,55.8,30.32,NNE,20,0.0,0.0,89,0.00,,CLR,0.00,VWS V14.01,2013-08-25 04:37:00,
2013-08-25 00:42:00,58.9,56.0,30.32,NE,46,1.0,3.0,90,0.00,,CLR,0.00,VWS V14.01,2013-08-25 04:42:00,
2013-08-25 00:47:00,59.0,56.1,30.32,NNW,348,2.0,3.0,90,0.00,,CLR,0.00,VWS V14.01,2013-08-25 04:47:00,
2013-08-25 00:52:00,58.8,55.9,30.32,NNE,31,1.0,4.0,90,0.00,,CLR,0.00,VWS V14.01,2013-08-25 04:52:00,
2013-08-25 00:57:00,58.7,55.8,30.32,NNE,15,0.0,4.0,90,0.00,,CLR,0.00,VWS V14.01,2013-08-25 04:57:00,
2013-08-25 01:02:00,58.6,55.7,30.32,NNE,20,0.0,0.0,90,0.00,,CLR,0.00,VWS V14.01,2013-08-25 05:02:00,
2013-08-25 01:07:00,58.4,55.5,30.32,NNE,27,0.0,2.0,90,0.00,,CLR,0.00,VWS V14.01,2013-08-25 05:07:00,
2013-08-25 01:12:00,58.2,55.3,30.32,NNE,24,0.0,2.0,90,0.00,,CLR,0.00,VWS V14.01,2013-08-25 05:12:00,
2013-08-25 01:17:00,58.0,55.4,30.32,NNE,24,0.0,2.0,91,0.00,,CLR,0.00,VWS V14.01,2013-08-25 05:17:00,
2013-08-25 01:22:00,57.8,55.2,30.32,NNE,25,0.0,2.0,91,0.00,,CLR,0.00,VWS V14.01,2013-08-25 05:22:00,
2013-08-25 01:27:00,57.7,55.4,30.32,NNE,25,0.0,2.0,92,0.00,,CLR,0.00,VWS V14.01,2013-08-25 05:27:00,
2013-08-25 01:32:00,57.6,55.3,30.32,NE,44,0.0,0.0,92,0.00,,CLR,0.00,VWS V14.01,2013-08-25 05:32:00,
2013-08-25 01:37:00,57.5,55.2,30.32,NE,44,0.0,0.0,92,0.00,,CLR,0.00,VWS V14.01,2013-08-25 05:37:00,
2013-08-25 01:42:00,57.5,55.2,30.32,NE,47,0.0,0.0,92,0.00,,CLR,0.00,VWS V14.01,2013-08-25 05:42:00,
2013-08-25 01:47:00,57.4,55.1,30.32,ENE,77,0.0,0.0,92,0.00,,CLR,0.00,VWS V14.01,2013-08-25 05:47:00,
2013-08-25 01:52:00,57.2,54.9,30.32,ENE,76,0.0,0.0,92,0.00,,CLR,0.00,VWS V14.01,2013-08-25 05:52:00,
2013-08-25 01:57:00,57.1,55.1,30.32,ENE,65,0.0,0.0,93,0.00,,CLR,0.00,VWS V14.01,2013-08-25 05:57:00,
2013-08-25 02:02:00,57.0,55.0,30.32,ENE,65,0.0,0.0,93,0.00,,CLR,0.00,VWS V14.01,2013-08-25 06:02:00,
2013-08-25 02:07:00,56.8,54.8,30.32,ENE,65,0.0,0.0,93,0.00,,CLR,0.00,VWS V14.01,2013-08-25 06:07:00,
2013-08-25 02:12:00,56.7,54.7,30.32,ENE,65,0.0,0.0,93,0.00,,CLR,0.00,VWS V14.01,2013-08-25 06:12:00,
2013-08-25 02:17:00,56.6,54.6,30.32,ENE,65,0.0,0.0,93,0.00,,CLR,0.00,VWS V14.01,2013-08-25 06:17:00,
2013-08-25 02:22:00,56.4,54.4,30.32,ENE,65,0.0,0.0,93,0.00,,CLR,0.00,VWS V14.01,2013-08-25 06:22:00,
2013-08-25 02:27:00,56.3,54.3,30.32,ENE,65,0.0,0.0,93,0.00,,CLR,0.00,VWS V14.01,2013-08-25 06:27:00,
2013-08-25 02:32:00,56.2,54.5,30.32,ENE,59,0.0,0.0,94,0.00,,CLR,0.00,VWS V14.01,2013-08-25 06:32:00,
2013-08-25 02:37:00,56.2,54.2,30.32,ENE,59,0.0,0.0,93,0.00,,CLR,0.00,VWS V14.01,2013-08-25 06:37:00,
2013-08-25 02:42:00,56.1,54.4,30.33,ENE,59,0.0,0.0,94,0.00,,CLR,0.00,VWS V14.01,2013-08-25 06:42:00,
2013-08-25 02:47:00,56.0,54.3,30.33,ENE,59,0.0,0.0,94,0.00,,CLR,0.00,VWS V14.01,2013-08-25 06:47:00,
2013-08-25 02:52:00,55.9,54.2,30.33,ENE,59,0.0,0.0,94,0.00,,CLR,0.00,VWS V14.01,2013-08-25 06:52:00,
2013-08-25 02:57:00,55.9,54.2,30.33,ENE,59,0.0,0.0,94,0.00,,CLR,0.00,VWS V14.01,2013-08-25 06:57:00,
2013-08-25 03:02:00,55.8,54.1,30.33,ENE,59,0.0,0.0,94,0.00,,CLR,0.00,VWS V14.01,2013-08-25 07:02:00,
2013-08-25 03:07:00,55.6,53.9,30.33,ENE,59,0.0,0.0,94,0.00,,CLR,0.00,VWS V14.01,2013-08-25 07:07:00,
2013-08-25 03:12:00,55.5,53.8,30.33,ENE,59,0.0,0.0,94,0.00,,CLR,0.00,VWS V14.01,2013-08-25 07:12:00,
2013-08-25 03:17:00,55.3,53.6,30.33,ENE,60,0.0,0.0,94,0.00,,CLR,0.00,VWS V14.01,2013-08-25 07:17:00,
2013-08-25 03:22:00,55.2,53.5,30.32,ENE,59,0.0,0.0,94,0.00,,CLR,0.00,VWS V14.01,2013-08-25 07:22:00,
2013-08-25 03:27:00,55.1,53.7,30.32,ENE,59,0.0,0.0,95,0.00,,CLR,0.00,VWS V14.01,2013-08-25 07:27:00,
2013-08-25 03:32:00,55.0,53.6,30.32,ENE,59,0.0,0.0,95,0.00,,CLR,0.00,VWS V14.01,2013-08-25 07:32:00,
2013-08-25 03:37:00,55.0,53.6,30.32,NE,36,0.0,0.0,95,0.00,,CLR,0.00,VWS V14.01,2013-08-25 07:37:00,
2013-08-25 03:42:00,55.1,53.7,30.32,NNE,27,1.0,2.0,95,0.00,,CLR,0.00,VWS V14.01,2013-08-25 07:42:00,
2013-08-25 03:47:00,55.1,53.7,30.33,NNE,30,0.0,2.0,95,0.00,,CLR,0.00,VWS V14.01,2013-08-25 07:47:00,
2013-08-25 03:52:00,55.1,53.7,30.33,NNE,30,0.0,2.0,95,0.00,,CLR,0.00,VWS V14.01,2013-08-25 07:52:00,
2013-08-25 03:57:00,55.1,53.7,30.33,NNE,30,0.0,2.0,95,0.00,,CLR,0.00,VWS V14.01,2013-08-25 07:57:00,
2013-08-25 04:02:00,55.0,53.6,30.33,NNE,30,0.0,0.0,95,0.00,,CLR,0.00,VWS V14.01,2013-08-25 08:02:00,
2013-08-25 04:07:00,55.0,53.6,30.34,NNE,30,0.0,0.0,95,0.00,,CLR,0.00,VWS V14.01,2013-08-25 08:07:00,
2013-08-25 04:12:00,54.9,53.5,30.34,NNE,30,0.0,0.0,95,0.00,,CLR,0.00,VWS V14.01,2013-08-25 08:12:00,
2013-08-25 04:17:00,54.8,53.4,30.34,NNE,30,0.0,0.0,95,0.00,,CLR,0.00,VWS V14.01,2013-08-25 08:17:00,
2013-08-25 04:22:00,54.7,53.3,30.34,NNE,30,0.0,0.0,95,0.00,,CLR,0.00,VWS V14.01,2013-08-25 08:22:00,
2013-08-25 04:27:00,54.6,53.2,30.34,NNE,30,0.0,0.0,95,0.00,,CLR,0.00,VWS V14.01,2013-08-25 08:27:00,
2013-08-25 04:32:00,54.7,53.3,30.34,NNE,30,0.0,0.0,95,0.00,,CLR,0.00,VWS V14.01,2013-08-25 08:32:00,
2013-08-25 04:37:00,54.7,53.3,30.34,NNE,30,0.0,0.0,95,0.00,,CLR,0.00,VWS V14.01,2013-08-25 08:37:00,
2013-08-25 04:42:00,54.7,53.3,30.35,North,9,0.0,0.0,95,0.00,,CLR,0.00,VWS V14.01,2013-08-25 08:42:00,
2013-08-25 04:47:00,54.7,53.3,30.35,NNE,20,0.0,0.0,95,0.00,,CLR,0.00,VWS V14.01,2013-08-25 08:47:00,
2013-08-25 04:52:00,54.7,53.3,30.35,NE,36,0.0,0.0,95,0.00,,CLR,0.00,VWS V14.01,2013-08-25 08:52:00,
2013-08-25 04:57:00,54.8,53.4,30.35,NE,36,0.0,0.0,95,0.00,,CLR,0.00,VWS V14.01,2013-08-25 08:57:00,
2013-08-25 05:02:00,54.8,53.4,30.35,NE,36,0.0,0.0,95,0.00,,FEW002,0.00,VWS V14.01,2013-08-25 09:02:00,
2013-08-25 05:06:00,54.8,53.1,30.35,NE,35,0.0,0.0,94,0.00,,FEW002,0.00,VWS V14.01,2013-08-25 09:06:00,
2013-08-25 05:11:00,54.7,53.0,30.35,NE,36,0.0,0.0,94,0.00,,FEW002,0.00,VWS V14.01,2013-08-25 09:11:00,
2013-08-25 05:16:00,54.5,52.8,30.36,NE,36,0.0,0.0,94,0.00,,FEW002,0.00,VWS V14.01,2013-08-25 09:16:00,
2013-08-25 05:21:00,54.3,52.6,30.36,NNE,16,0.0,0.0,94,0.00,,FEW002,0.00,VWS V14.01,2013-08-25 09:21:00,
2013-08-25 05:26:00,54.3,52.6,30.36,NNE,16,0.0,0.0,94,0.00,,FEW002,0.00,VWS V14.01,2013-08-25 09:26:00,
2013-08-25 05:31:00,54.2,52.5,30.36,NNE,16,0.0,0.0,94,0.00,,,0.00,VWS V14.01,2013-08-25 09:31:00,
2013-08-25 05:36:00,54.2,52.5,30.36,NNE,16,0.0,0.0,94,0.00,,,0.00,VWS V14.01,2013-08-25 09:36:00,
2013-08-25 05:41:00,54.3,52.9,30.36,NNW,342,0.0,0.0,95,0.00,,,0.00,VWS V14.01,2013-08-25 09:41:00,
2013-08-25 05:46:00,54.4,53.0,30.36,NNW,342,0.0,0.0,95,0.00,,,0.00,VWS V14.01,2013-08-25 09:46:00,
2013-08-25 05:51:00,54.5,53.1,30.36,NNW,342,0.0,0.0,95,0.00,,,0.00,VWS V14.01,2013-08-25 09:51:00,
2013-08-25 05:56:00,54.5,53.1,30.36,NNW,342,0.0,0.0,95,0.00,,,0.00,VWS V14.01,2013-08-25 09:56:00,
2013-08-25 06:01:00,54.5,53.4,30.36,WNW,288,0.0,0.0,96,0.00,,OVC003,0.00,VWS V14.01,2013-08-25 10:01:00,
2013-08-25 06:06:00,54.5,53.4,30.37,WNW,291,0.0,2.0,96,0.00,,OVC003,0.00,VWS V14.01,2013-08-25 10:06:00,
2013-08-25 06:11:00,54.4,53.3,30.37,WNW,294,2.0,3.0,96,0.00,,OVC003,0.00,VWS V14.01,2013-08-25 10:11:00,
2013-08-25 06:16:00,54.3,53.2,30.38,North,6,0.0,3.0,96,0.00,,OVC003,0.00,VWS V14.01,2013-08-25 10:16:00,
2013-08-25 06:21:00,54.3,53.2,30.38,North,354,0.0,3.0,96,0.00,,OVC003,0.00,VWS V14.01,2013-08-25 10:21:00,
2013-08-25 06:26:00,54.3,53.5,30.38,NNW,327,1.0,3.0,97,0.00,,OVC003,0.00,VWS V14.01,2013-08-25 10:26:00,
2013-08-25 06:31:00,54.2,53.4,30.38,NW,324,0.0,1.0,97,0.00,,OVC003,0.00,VWS V14.01,2013-08-25 10:31:00,
2013-08-25 06:36:00,54.2,53.4,30.38,NW,324,0.0,1.0,97,0.00,,OVC003,0.00,VWS V14.01,2013-08-25 10:36:00,
2013-08-25 06:41:00,54.2,53.4,30.39,WNW,293,0.0,2.0,97,0.00,,OVC003,0.00,VWS V14.01,2013-08-25 10:41:00,
2013-08-25 06:46:00,54.1,53.3,30.39,WNW,293,0.0,2.0,97,0.00,,OVC003,0.00,VWS V14.01,2013-08-25 10:46:00,
2013-08-25 06:51:00,54.2,53.4,30.40,WNW,293,0.0,2.0,97,0.00,,OVC003,0.00,VWS V14.01,2013-08-25 10:51:00,
2013-08-25 06:56:00,54.1,53.3,30.39,WNW,293,0.0,2.0,97,0.00,,OVC003,0.00,VWS V14.01,2013-08-25 10:56:00,
2013-08-25 07:01:00,54.1,53.3,30.40,WNW,294,0.0,0.0,97,0.00,,OVC003,0.00,VWS V14.01,2013-08-25 11:01:00,
2013-08-25 07:06:00,54.1,53.3,30.40,WNW,294,0.0,0.0,97,0.00,,OVC003,0.00,VWS V14.01,2013-08-25 11:06:00,
2013-08-25 07:11:00,54.1,53.3,30.39,WNW,294,0.0,0.0,97,0.00,,OVC003,0.00,VWS V14.01,2013-08-25 11:11:00,
2013-08-25 07:16:00,54.1,53.3,30.39,WNW,294,0.0,0.0,97,0.00,,OVC003,0.00,VWS V14.01,2013-08-25 11:16:00,
2013-08-25 07:21:00,54.1,53.3,30.39,WNW,293,0.0,0.0,97,0.00,,OVC003,0.00,VWS V14.01,2013-08-25 11:21:00,
2013-08-25 07:26:00,54.2,53.4,30.39,WNW,293,0.0,0.0,97,0.00,,OVC003,0.00,VWS V14.01,2013-08-25 11:26:00,
2013-08-25 07:31:00,54.2,53.4,30.39,WNW,293,0.0,0.0,97,0.00,,,0.00,VWS V14.01,2013-08-25 11:31:00,
2013-08-25 07:36:00,54.2,53.4,30.40,WNW,293,0.0,0.0,97,0.00,,,0.00,VWS V14.01,2013-08-25 11:36:00,
2013-08-25 07:41:00,54.3,53.5,30.40,WNW,293,0.0,0.0,97,0.00,,,0.00,VWS V14.01,2013-08-25 11:41:00,
2013-08-25 07:46:00,54.4,53.6,30.40,WNW,286,0.0,0.0,97,0.00,,,0.00,VWS V14.01,2013-08-25 11:46:00,
2013-08-25 07:51:00,54.4,53.8,30.40,North,350,0.0,0.0,98,0.00,,,0.00,VWS V14.01,2013-08-25 11:51:00,
2013-08-25 07:56:00,54.6,54.0,30.40,WNW,284,2.0,3.0,98,0.00,,,0.00,VWS V14.01,2013-08-25 11:56:00,
2013-08-25 08:01:00,54.4,53.6,30.40,West,273,2.0,2.0,97,0.00,,,0.00,VWS V14.01,2013-08-25 12:01:00,
2013-08-25 08:06:00,54.3,53.5,30.40,WNW,284,1.0,2.0,97,0.00,,,0.00,VWS V14.01,2013-08-25 12:06:00,
2013-08-25 08:11:00,54.4,53.6,30.40,WNW,285,2.0,3.0,97,0.00,,,0.00,VWS V14.01,2013-08-25 12:11:00,
2013-08-25 08:16:00,54.5,54.0,30.40,WNW,297,0.0,3.0,98,0.00,,,0.00,VWS V14.01,2013-08-25 12:16:00,
2013-08-25 08:21:00,54.8,54.0,30.40,WNW,287,1.0,3.0,97,0.00,,,0.00,VWS V14.01,2013-08-25 12:21:00,
2013-08-25 08:26:00,54.7,53.9,30.40,West,280,1.0,3.0,97,0.00,,,0.00,VWS V14.01,2013-08-25 12:26:00,
2013-08-25 08:31:00,54.8,54.0,30.40,WSW,252,0.0,2.0,97,0.00,,,0.00,VWS V14.01,2013-08-25 12:31:00,
2013-08-25 08:36:00,55.2,54.7,30.40,WSW,256,0.0,2.0,98,0.00,,,0.00,VWS V14.01,2013-08-25 12:36:00,
2013-08-25 08:41:00,55.3,54.5,30.40,WNW,283,0.0,2.0,97,0.00,,,0.00,VWS V14.01,2013-08-25 12:41:00,
2013-08-25 08:46:00,55.8,55.0,30.39,West,281,0.0,2.0,97,0.00,,,0.00,VWS V14.01,2013-08-25 12:46:00,
2013-08-25 08:51:00,56.6,55.8,30.40,SW,231,0.0,2.0,97,0.00,,,0.00,VWS V14.01,2013-08-25 12:51:00,
2013-08-25 08:56:00,57.0,55.9,30.39,West,277,2.0,2.0,96,0.00,,,0.00,VWS V14.01,2013-08-25 12:56:00,
2013-08-25 09:01:00,57.3,55.9,30.39,SW,224,0.0,0.0,95,0.00,,,0.00,VWS V14.01,2013-08-25 13:01:00,
2013-08-25 09:06:00,57.8,56.1,30.39,WNW,291,2.0,3.0,94,0.00,,,0.00,VWS V14.01,2013-08-25 13:06:00,
2013-08-25 09:11:00,58.5,56.8,30.40,West,281,1.0,4.0,94,0.00,,,0.00,VWS V14.01,2013-08-25 13:11:00,
2013-08-25 09:16:00,59.1,56.5,30.39,West,278,1.0,4.0,91,0.00,,,0.00,VWS V14.01,2013-08-25 13:16:00,
2013-08-25 09:21:00,59.9,57.0,30.39,WNW,287,2.0,4.0,90,0.00,,,0.00,VWS V14.01,2013-08-25 13:21:00,
2013-08-25 09:26:00,60.5,56.9,30.39,SW,219,2.0,4.0,88,0.00,,,0.00,VWS V14.01,2013-08-25 13:26:00,
2013-08-25 09:31:00,60.8,57.2,30.39,SW,218,0.0,2.0,88,0.00,,,0.00,VWS V14.01,2013-08-25 13:31:00,
2013-08-25 09:36:00,61.5,57.9,30.39,SSE,160,0.0,2.0,88,0.00,,,0.00,VWS V14.01,2013-08-25 13:36:00,
2013-08-25 09:41:00,62.6,57.7,30.39,West,279,0.0,2.0,84,0.00,,,0.00,VWS V14.01,2013-08-25 13:41:00,
2013-08-25 09:46:00,62.8,57.6,30.39,NW,318,0.0,2.0,83,0.00,,,0.00,VWS V14.01,2013-08-25 13:46:00,
2013-08-25 09:51:00,63.2,58.0,30.38,SW,221,0.0,2.0,83,0.00,,,0.00,VWS V14.01,2013-08-25 13:51:00,
2013-08-25 09:56:00,63.8,57.9,30.38,WSW,248,1.0,2.0,81,0.00,,,0.00,VWS V14.01,2013-08-25 13:56:00,
2013-08-25 10:01:00,64.1,57.8,30.38,NE,42,0.0,1.0,80,0.00,,BKN003,0.00,VWS V14.01,2013-08-25 14:01:00,
2013-08-25 10:06:00,64.6,58.0,30.38,West,259,0.0,2.0,79,0.00,,BKN003,0.00,VWS V14.01,2013-08-25 14:06:00,
2013-08-25 10:11:00,64.9,58.6,30.38,SSW,193,0.0,3.0,80,0.00,,BKN003,0.00,VWS V14.01,2013-08-25 14:11:00,
2013-08-25 10:16:00,65.7,58.3,30.38,SW,235,0.0,3.0,77,0.00,,BKN003,0.00,VWS V14.01,2013-08-25 14:16:00,
2013-08-25 10:21:00,66.1,58.7,30.38,SW,224,1.0,3.0,77,0.00,,BKN003,0.00,VWS V14.01,2013-08-25 14:21:00,
2013-08-25 10:26:00,66.3,58.9,30.38,WSW,245,2.0,3.0,77,0.00,,BKN003,0.00,VWS V14.01,2013-08-25 14:26:00,
2013-08-25 10:31:00,67.3,60.2,30.38,ESE,117,0.0,2.0,78,0.00,,SCT003,0.00,VWS V14.01,2013-08-25 14:31:00,
2013-08-25 10:36:00,68.2,59.2,30.38,SE,145,2.0,3.0,73,0.00,,SCT003,0.00,VWS V14.01,2013-08-25 14:36:00,
2013-08-25 10:41:00,68.4,59.8,30.38,South,190,2.0,3.0,74,0.00,,SCT003,0.00,VWS V14.01,2013-08-25 14:41:00,
2013-08-25 10:46:00,68.6,59.2,30.37,East,98,0.0,5.0,72,0.00,,SCT003,0.00,VWS V14.01,2013-08-25 14:46:00,
2013-08-25 10:51:00,69.4,60.4,30.37,ESE,122,2.0,5.0,73,0.00,,SCT003,0.00,VWS V14.01,2013-08-25 14:51:00,
2013-08-25 10:56:00,69.7,60.3,30.37,ESE,120,1.0,5.0,72,0.00,,SCT003,0.00,VWS V14.01,2013-08-25 14:56:00,
2013-08-25 11:01:00,69.8,60.0,30.37,ESE,110,4.0,4.0,71,0.00,,CLR,0.00,VWS V14.01,2013-08-25 15:01:00,
2013-08-25 11:06:00,70.2,60.8,30.36,SSW,208,2.0,4.0,72,0.00,,CLR,0.00,VWS V14.01,2013-08-25 15:06:00,
2013-08-25 11:11:00,70.3,60.5,30.36,WSW,242,2.0,5.0,71,0.00,,CLR,0.00,VWS V14.01,2013-08-25 15:11:00,
2013-08-25 11:16:00,70.5,60.7,30.35,ESE,104,1.0,5.0,71,0.00,,CLR,0.00,VWS V14.01,2013-08-25 15:16:00,
2013-08-25 11:21:00,71.2,60.9,30.35,SE,124,1.0,5.0,70,0.00,,CLR,0.00,VWS V14.01,2013-08-25 15:21:00,
2013-08-25 11:25:00,71.6,61.3,30.35,South,186,2.0,5.0,70,0.00,,CLR,0.00,VWS V14.01,2013-08-25 15:25:00,
2013-08-25 11:30:00,72.6,62.3,30.35,ESE,113,1.0,3.0,70,0.00,,CLR,0.00,VWS V14.01,2013-08-25 15:30:00,
2013-08-25 11:35:00,73.8,62.6,30.35,West,259,0.0,3.0,68,0.00,,CLR,0.00,VWS V14.01,2013-08-25 15:35:00,
2013-08-25 11:40:00,74.4,62.3,30.34,ESE,105,0.0,3.0,66,0.00,,CLR,0.00,VWS V14.01,2013-08-25 15:40:00,
2013-08-25 11:45:00,75.1,62.1,30.34,SW,222,1.0,3.0,64,0.00,,CLR,0.00,VWS V14.01,2013-08-25 15:45:00,
2013-08-25 11:50:00,75.3,62.3,30.34,WSW,250,4.0,4.0,64,0.00,,CLR,0.00,VWS V14.01,2013-08-25 15:50:00,
2013-08-25 11:55:00,75.9,62.9,30.34,SW,236,2.0,4.0,64,0.00,,CLR,0.00,VWS V14.01,2013-08-25 15:55:00,
2013-08-25 12:00:00,76.4,62.4,30.34,WNW,293,1.0,2.0,62,0.00,,CLR,0.00,VWS V14.01,2013-08-25 16:00:00,
2013-08-25 12:05:00,77.7,64.1,30.33,ENE,60,0.0,2.0,63,0.00,,CLR,0.00,VWS V14.01,2013-08-25 16:05:00,
2013-08-25 12:10:00,79.0,62.5,30.33,ENE,73,0.0,2.0,57,0.00,,CLR,0.00,VWS V14.01,2013-08-25 16:10:00,
2013-08-25 12:15:00,78.4,62.9,30.33,ENE,72,0.0,4.0,59,0.00,,CLR,0.00,VWS V14.01,2013-08-25 16:15:00,
2013-08-25 12:20:00,77.7,62.7,30.33,SW,226,2.0,4.0,60,0.00,,CLR,0.00,VWS V14.01,2013-08-25 16:20:00,
2013-08-25 12:25:00,76.6,62.6,30.33,SW,219,2.0,4.0,62,0.00,,CLR,0.00,VWS V14.01,2013-08-25 16:25:00,
2013-08-25 12:30:00,76.4,62.4,30.33,SSW,210,0.0,0.0,62,0.00,,CLR,0.00,VWS V14.01,2013-08-25 16:30:00,
2013-08-25 12:35:00,76.6,63.1,30.32,SE,130,0.0,3.0,63,0.00,,CLR,0.00,VWS V14.01,2013-08-25 16:35:00,
2013-08-25 12:40:00,77.0,61.1,30.32,SSW,210,0.0,3.0,58,0.00,,CLR,0.00,VWS V14.01,2013-08-25 16:40:00,
2013-08-25 12:45:00,77.7,60.8,30.32,ESE,120,0.0,3.0,56,0.00,,CLR,0.00,VWS V14.01,2013-08-25 16:45:00,
2013-08-25 12:50:00,77.9,61.5,30.32,SW,226,2.0,5.0,57,0.00,,CLR,0.00,VWS V14.01,2013-08-25 16:50:00,
2013-08-25 12:55:00,78.4,61.9,30.32,SW,221,3.0,5.0,57,0.00,,CLR,0.00,VWS V14.01,2013-08-25 16:55:00,
2013-08-25 13:00:00,79.4,61.8,30.32,SW,225,1.0,1.0,55,0.00,,CLR,0.00,VWS V14.01,2013-08-25 17:00:00,
2013-08-25 13:05:00,80.7,62.0,30.32,SW,229,3.0,3.0,53,0.00,,CLR,0.00,VWS V14.01,2013-08-25 17:05:00,
2013-08-25 13:10:00,80.2,61.5,30.31,SW,228,0.0,5.0,53,0.00,,CLR,0.00,VWS V14.01,2013-08-25 17:10:00,
2013-08-25 13:15:00,80.2,61.0,30.31,SSW,210,3.0,5.0,52,0.00,,CLR,0.00,VWS V14.01,2013-08-25 17:15:00,
2013-08-25 13:20:00,79.9,60.2,30.30,WNW,283,0.0,5.0,51,0.00,,CLR,0.00,VWS V14.01,2013-08-25 17:20:00,
2013-08-25 13:25:00,80.3,58.2,30.30,WNW,283,0.0,5.0,47,0.00,,CLR,0.00,VWS V14.01,2013-08-25 17:25:00,
2013-08-25 13:30:00,80.9,58.2,30.30,WNW,289,3.0,3.0,46,0.00,,CLR,0.00,VWS V14.01,2013-08-25 17:30:00,
2013-08-25 13:35:00,80.2,58.8,30.30,SW,236,0.0,4.0,48,0.00,,CLR,0.00,VWS V14.01,2013-08-25 17:35:00,
2013-08-25 13:40:00,80.2,59.9,30.30,SSW,204,0.0,4.0,50,0.00,,CLR,0.00,VWS V14.01,2013-08-25 17:40:00,
2013-08-25 13:45:00,80.6,59.7,30.29,ESE,104,1.0,4.0,49,0.00,,CLR,0.00,VWS V14.01,2013-08-25 17:45:00,
2013-08-25 13:50:00,80.4,59.5,30.29,East,94,1.0,5.0,49,0.00,,CLR,0.00,VWS V14.01,2013-08-25 17:50:00,
2013-08-25 13:55:00,80.2,59.9,30.28,East,80,1.0,5.0,50,0.00,,CLR,0.00,VWS V14.01,2013-08-25 17:55:00,
2013-08-25 14:00:00,80.8,60.4,30.28,WSW,242,1.0,5.0,50,0.00,,OVC048,0.00,VWS V14.01,2013-08-25 18:00:00,
2013-08-25 14:05:00,81.2,60.2,30.28,ENE,65,0.0,5.0,49,0.00,,OVC048,0.00,VWS V14.01,2013-08-25 18:05:00,
2013-08-25 14:10:00,81.7,59.5,30.28,SE,136,0.0,5.0,47,0.00,,OVC048,0.00,VWS V14.01,2013-08-25 18:10:00,
2013-08-25 14:15:00,81.6,59.4,30.28,SW,233,0.0,5.0,47,0.00,,OVC048,0.00,VWS V14.01,2013-08-25 18:15:00,
2013-08-25 14:20:00,81.5,59.3,30.28,SE,127,0.0,5.0,47,0.00,,OVC048,0.00,VWS V14.01,2013-08-25 18:20:00,
2013-08-25 14:25:00,81.2,59.1,30.28,ESE,118,0.0,5.0,47,0.00,,OVC048,0.00,VWS V14.01,2013-08-25 18:25:00,
2013-08-25 14:30:00,81.7,58.9,30.28,East,101,1.0,2.0,46,0.00,,OVC048,0.00,VWS V14.01,2013-08-25 18:30:00,
2013-08-25 14:35:00,82.0,58.6,30.27,SSW,212,0.0,4.0,45,0.00,,OVC048,0.00,VWS V14.01,2013-08-25 18:35:00,
2013-08-25 14:40:00,82.6,58.5,30.27,South,173,1.0,4.0,44,0.00,,OVC048,0.00,VWS V14.01,2013-08-25 18:40:00,
2013-08-25 14:45:00,82.9,58.1,30.27,East,101,2.0,6.0,43,0.00,,OVC048,0.00,VWS V14.01,2013-08-25 18:45:00,
2013-08-25 14:50:00,83.6,58.8,30.27,ESE,113,2.0,7.0,43,0.00,,OVC048,0.00,VWS V14.01,2013-08-25 18:50:00,
2013-08-25 14:55:00,83.7,57.5,30.27,SSE,167,0.0,7.0,41,0.00,,OVC048,0.00,VWS V14.01,2013-08-25 18:55:00,
2013-08-25 15:00:00,83.7,58.2,30.27,SW,231,4.0,7.0,42,0.00,,FEW060,0.00,VWS V14.01,2013-08-25 19:00:00,
2013-08-25 15:05:00,83.4,58.6,30.27,SE,143,0.0,6.0,43,0.00,,FEW060,0.00,VWS V14.01,2013-08-25 19:05:00,
2013-08-25 15:10:00,83.6,58.1,30.27,NW,315,4.0,7.0,42,0.00,,FEW060,0.00,VWS V14.01,2013-08-25 19:10:00,
2013-08-25 15:15:00,84.1,57.9,30.27,WNW,290,5.0,7.0,41,0.00,,FEW060,0.00,VWS V14.01,2013-08-25 19:15:00,
2013-08-25 15:20:00,84.1,57.9,30.27,SW,232,2.0,7.0,41,0.00,,FEW060,0.00,VWS V14.01,2013-08-25 19:20:00,
2013-08-25 15:25:00,84.3,57.4,30.26,WNW,287,5.0,7.0,40,0.00,,FEW060,0.00,VWS V14.01,2013-08-25 19:25:00,
2013-08-25 15:30:00,83.4,57.3,30.26,WNW,289,4.0,9.0,41,0.00,,FEW060,0.00,VWS V14.01,2013-08-25 19:30:00,
2013-08-25 15:35:00,82.8,56.7,30.26,WNW,289,4.0,8.0,41,0.00,,FEW060,0.00,VWS V14.01,2013-08-25 19:35:00,
2013-08-25 15:40:00,83.1,59.0,30.26,WNW,297,3.0,8.0,44,0.00,,FEW060,0.00,VWS V14.01,2013-08-25 19:40:00,
2013-08-25 15:45:00,83.2,57.8,30.26,WNW,293,1.0,8.0,42,0.00,,FEW060,0.00,VWS V14.01,2013-08-25 19:45:00,
2013-08-25 15:50:00,83.8,58.3,30.25,WNW,288,0.0,8.0,42,0.00,,FEW060,0.00,VWS V14.01,2013-08-25 19:50:00,
2013-08-25 15:55:00,84.6,58.3,30.25,WNW,293,5.0,9.0,41,0.00,,FEW060,0.00,VWS V14.01,2013-08-25 19:55:00,
2013-08-25 16:00:00,83.8,58.3,30.24,West,278,4.0,9.0,42,0.00,,BKN065,0.00,VWS V14.01,2013-08-25 20:00:00,
2013-08-25 16:05:00,83.1,58.3,30.24,WNW,291,5.0,8.0,43,0.00,,BKN065,0.00,VWS V14.01,2013-08-25 20:05:00,
2013-08-25 16:10:00,83.4,57.9,30.24,West,281,3.0,8.0,42,0.00,,BKN065,0.00,VWS V14.01,2013-08-25 20:10:00,
2013-08-25 16:15:00,83.7,59.5,30.24,West,277,2.0,8.0,44,0.00,,BKN065,0.00,VWS V14.01,2013-08-25 20:15:00,
2013-08-25 16:20:00,83.7,58.2,30.24,East,98,2.0,8.0,42,0.00,,BKN065,0.00,VWS V14.01,2013-08-25 20:20:00,
2013-08-25 16:25:00,83.6,58.8,30.24,WSW,252,1.0,8.0,43,0.00,,BKN065,0.00,VWS V14.01,2013-08-25 20:25:00,
2013-08-25 16:30:00,83.6,59.4,30.23,SW,221,2.0,8.0,44,0.00,,BKN065,0.00,VWS V14.01,2013-08-25 20:30:00,
2013-08-25 16:35:00,84.2,59.3,30.23,West,260,2.0,6.0,43,0.00,,BKN065,0.00,VWS V14.01,2013-08-25 20:35:00,
2013-08-25 16:40:00,84.5,57.5,30.23,WNW,294,5.0,10.0,40,0.00,,BKN065,0.00,VWS V14.01,2013-08-25 20:40:00,
2013-08-25 16:45:00,84.6,58.3,30.22,West,259,4.0,10.0,41,0.00,,BKN065,0.00,VWS V14.01,2013-08-25 20:45:00,
2013-08-25 16:50:00,84.0,57.8,30.22,WNW,283,1.0,10.0,41,0.00,,BKN065,0.00,VWS V14.01,2013-08-25 20:50:00,
2013-08-25 16:55:00,83.4,57.3,30.22,WSW,243,2.0,10.0,41,0.00,,BKN065,0.00,VWS V14.01,2013-08-25 20:55:00,
2013-08-25 17:00:00,83.1,58.3,30.21,West,264,1.0,10.0,43,0.00,,FEW065,0.00,VWS V14.01,2013-08-25 21:00:00,
2013-08-25 17:05:00,83.6,58.8,30.21,West,270,0.0,4.0,43,0.00,,FEW065,0.00,VWS V14.01,2013-08-25 21:05:00,
2013-08-25 17:10:00,83.7,58.8,30.21,WNW,284,5.0,6.0,43,0.00,,FEW065,0.00,VWS V14.01,2013-08-25 21:10:00,
2013-08-25 17:15:00,84.1,58.5,30.21,WNW,297,4.0,6.0,42,0.00,,FEW065,0.00,VWS V14.01,2013-08-25 21:15:00,
2013-08-25 17:20:00,84.0,58.5,30.20,SW,228,6.0,8.0,42,0.00,,FEW065,0.00,VWS V14.01,2013-08-25 21:20:00,
2013-08-25 17:25:00,83.7,58.2,30.20,South,172,0.0,8.0,42,0.00,,FEW065,0.00,VWS V14.01,2013-08-25 21:25:00,
2013-08-25 17:30:00,83.6,58.8,30.20,SSE,150,1.0,8.0,43,0.00,,FEW065,0.00,VWS V14.01,2013-08-25 21:30:00,
2013-08-25 17:35:00,83.4,58.6,30.20,SW,222,1.0,5.0,43,0.00,,FEW065,0.00,VWS V14.01,2013-08-25 21:35:00,
2013-08-25 17:40:00,82.8,58.0,30.20,SSE,167,2.0,7.0,43,0.00,,FEW065,0.00,VWS V14.01,2013-08-25 21:40:00,
2013-08-25 17:45:00,82.7,58.6,30.20,SW,224,2.0,7.0,44,0.00,,FEW065,0.00,VWS V14.01,2013-08-25 21:45:00,
2013-08-25 17:50:00,83.2,58.4,30.21,WSW,253,0.0,7.0,43,0.00,,FEW065,0.00,VWS V14.01,2013-08-25 21:50:00,
2013-08-25 17:55:00,83.1,58.3,30.21,SW,228,1.0,7.0,43,0.00,,FEW065,0.00,VWS V14.01,2013-08-25 21:55:00,
2013-08-25 18:00:00,83.0,59.5,30.21,SW,225,2.0,7.0,45,0.00,,CLR,0.00,VWS V14.01,2013-08-25 22:00:00,
2013-08-25 18:05:00,83.0,58.9,30.20,SSW,211,2.0,4.0,44,0.00,,CLR,0.00,VWS V14.01,2013-08-25 22:05:00,
2013-08-25 18:10:00,82.8,58.7,30.20,SW,216,0.0,5.0,44,0.00,,CLR,0.00,VWS V14.01,2013-08-25 22:10:00,
2013-08-25 18:15:00,82.8,59.9,30.20,SW,232,1.0,5.0,46,0.00,,CLR,0.00,VWS V14.01,2013-08-25 22:15:00,
2013-08-25 18:20:00,82.7,59.2,30.19,SSW,212,2.0,5.0,45,0.00,,CLR,0.00,VWS V14.01,2013-08-25 22:20:00,
2013-08-25 18:25:00,82.4,60.2,30.20,SW,218,1.0,5.0,47,0.00,,CLR,0.00,VWS V14.01,2013-08-25 22:25:00,
2013-08-25 18:30:00,82.1,60.5,30.20,SW,228,0.0,5.0,48,0.00,,CLR,0.00,VWS V14.01,2013-08-25 22:30:00,
2013-08-25 18:35:00,81.7,60.7,30.19,WSW,238,0.0,4.0,49,0.00,,CLR,0.00,VWS V14.01,2013-08-25 22:35:00,
2013-08-25 18:40:00,81.4,62.1,30.19,SW,235,0.0,4.0,52,0.00,,CLR,0.00,VWS V14.01,2013-08-25 22:40:00,
2013-08-25 18:45:00,80.9,61.6,30.19,SW,219,0.0,4.0,52,0.00,,CLR,0.00,VWS V14.01,2013-08-25 22:45:00,
2013-08-25 18:50:00,80.4,62.2,30.19,SW,221,1.0,4.0,54,0.00,,CLR,0.00,VWS V14.01,2013-08-25 22:50:00,
2013-08-25 18:55:00,80.0,62.9,30.19,SW,232,0.0,4.0,56,0.00,,CLR,0.00,VWS V14.01,2013-08-25 22:55:00,
2013-08-25 19:00:00,79.7,62.6,30.18,SW,232,0.0,4.0,56,0.00,,CLR,0.00,VWS V14.01,2013-08-25 23:00:00,
2013-08-25 19:05:00,79.3,62.3,30.18,SW,221,1.0,2.0,56,0.00,,FEW070,0.00,VWS V14.01,2013-08-25 23:05:00,
2013-08-25 19:10:00,79.0,62.0,30.18,SSW,210,0.0,2.0,56,0.00,,FEW070,0.00,VWS V14.01,2013-08-25 23:10:00,
2013-08-25 19:15:00,78.9,61.9,30.18,SSW,210,0.0,2.0,56,0.00,,FEW070,0.00,VWS V14.01,2013-08-25 23:15:00,
2013-08-25 19:20:00,78.7,61.7,30.18,SSW,210,0.0,2.0,56,0.00,,FEW070,0.00,VWS V14.01,2013-08-25 23:20:00,
2013-08-25 19:25:00,78.5,62.0,30.18,SW,221,0.0,2.0,57,0.00,,FEW070,0.00,VWS V14.01,2013-08-25 23:25:00,
2013-08-25 19:30:00,78.3,61.3,30.18,SSE,166,0.0,3.0,56,0.00,,FEW070,0.00,VWS V14.01,2013-08-25 23:30:00,
2013-08-25 19:35:00,78.0,60.5,30.18,SW,226,2.0,5.0,55,0.00,,FEW070,0.00,VWS V14.01,2013-08-25 23:35:00,
2013-08-25 19:40:00,77.7,60.8,30.17,ESE,118,2.0,5.0,56,0.00,,FEW070,0.00,VWS V14.01,2013-08-25 23:40:00,
2013-08-25 19:45:00,77.4,60.0,30.17,SSW,204,3.0,6.0,55,0.00,,FEW070,0.00,VWS V14.01,2013-08-25 23:45:00,
2013-08-25 19:50:00,77.3,60.4,30.17,SW,221,3.0,6.0,56,0.00,,FEW070,0.00,VWS V14.01,2013-08-25 23:50:00,
2013-08-25 19:55:00,77.3,59.9,30.17,SW,224,2.0,7.0,55,0.00,,FEW070,0.00,VWS V14.01,2013-08-25 23:55:00,
2013-08-25 19:59:00,77.3,59.9,30.17,SSW,201,2.0,9.0,55,0.00,,FEW070,0.00,VWS V14.01,2013-08-25 23:59:00,
2013-08-25 20:04:00,77.1,59.7,30.17,SW,236,2.0,9.0,55,0.00,,SCT065,0.00,VWS V14.01,2013-08-26 00:04:00,
2013-08-25 20:09:00,77.0,60.1,30.17,SW,228,4.0,9.0,56,0.00,,SCT065,0.00,VWS V14.01,2013-08-26 00:09:00,
2013-08-25 20:14:00,76.9,60.0,30.17,SW,236,1.0,9.0,56,0.00,,SCT065,0.00,VWS V14.01,2013-08-26 00:14:00,
2013-08-25 20:19:00,76.7,59.8,30.17,SW,214,4.0,9.0,56,0.00,,SCT065,0.00,VWS V14.01,2013-08-26 00:19:00,
2013-08-25 20:24:00,76.6,60.2,30.18,SSE,164,0.0,9.0,57,0.00,,SCT065,0.00,VWS V14.01,2013-08-26 00:24:00,
2013-08-25 20:29:00,76.5,60.2,30.18,SSW,193,0.0,9.0,57,0.00,,SCT065,0.00,VWS V14.01,2013-08-26 00:29:00,
2013-08-25 20:34:00,76.5,60.6,30.18,NNE,19,0.0,0.0,58,0.00,,SCT065,0.00,VWS V14.01,2013-08-26 00:34:00,
2013-08-25 20:39:00,76.2,60.8,30.18,East,93,0.0,3.0,59,0.00,,SCT065,0.00,VWS V14.01,2013-08-26 00:39:00,
2013-08-25 20:44:00,75.8,60.9,30.18,East,84,1.0,3.0,60,0.00,,SCT065,0.00,VWS V14.01,2013-08-26 00:44:00,
2013-08-25 20:49:00,75.4,61.0,30.17,East,79,0.0,3.0,61,0.00,,SCT065,0.00,VWS V14.01,2013-08-26 00:49:00,
2013-08-25 20:54:00,75.1,60.8,30.17,East,88,0.0,3.0,61,0.00,,SCT065,0.00,VWS V14.01,2013-08-26 00:54:00,
2013-08-25 20:59:00,74.9,60.6,30.17,East,96,0.0,3.0,61,0.00,,SCT065,0.00,VWS V14.01,2013-08-26 00:59:00,
2013-08-25 21:04:00,74.8,60.9,30.18,East,96,0.0,1.0,62,0.00,,FEW065,0.00,VWS V14.01,2013-08-26 01:04:00,
2013-08-25 21:09:00,74.6,61.2,30.18,NE,38,0.0,2.0,63,0.00,,FEW065,0.00,VWS V14.01,2013-08-26 01:09:00,
2013-08-25 21:14:00,74.3,61.3,30.18,NE,38,0.0,2.0,64,0.00,,FEW065,0.00,VWS V14.01,2013-08-26 01:14:00,
2013-08-25 21:19:00,74.0,61.1,30.18,NE,39,0.0,2.0,64,0.00,,FEW065,0.00,VWS V14.01,2013-08-26 01:19:00,
2013-08-25 21:24:00,73.7,61.2,30.18,NE,38,0.0,2.0,65,0.00,,FEW065,0.00,VWS V14.01,2013-08-26 01:24:00,
2013-08-25 21:29:00,73.5,61.5,30.18,SSE,163,0.0,2.0,66,0.00,,FEW065,0.00,VWS V14.01,2013-08-26 01:29:00,
2013-08-25 21:34:00,73.2,61.6,30.19,SW,218,0.0,1.0,67,0.00,,FEW065,0.00,VWS V14.01,2013-08-26 01:34:00,
2013-08-25 21:39:00,72.9,61.3,30.19,SW,218,0.0,1.0,67,0.00,,FEW065,0.00,VWS V14.01,2013-08-26 01:39:00,
2013-08-25 21:44:00,72.6,61.9,30.19,SW,218,0.0,1.0,69,0.00,,FEW065,0.00,VWS V14.01,2013-08-26 01:44:00,
2013-08-25 21:49:00,72.4,61.7,30.19,SW,231,0.0,1.0,69,0.00,,FEW065,0.00,VWS V14.01,2013-08-26 01:49:00,
2013-08-25 21:54:00,72.2,61.9,30.19,East,84,1.0,2.0,70,0.00,,FEW065,0.00,VWS V14.01,2013-08-26 01:54:00,
2013-08-25 21:59:00,71.6,62.1,30.19,NE,46,0.0,4.0,72,0.00,,FEW065,0.00,VWS V14.01,2013-08-26 01:59:00,
2013-08-25 22:04:00,70.9,62.2,30.19,ESE,105,0.0,2.0,74,0.00,,CLR,0.00,VWS V14.01,2013-08-26 02:04:00,
2013-08-25 22:09:00,70.5,62.2,30.19,NE,36,1.0,2.0,75,0.00,,CLR,0.00,VWS V14.01,2013-08-26 02:09:00,
2013-08-25 22:14:00,70.1,62.2,30.19,North,3,2.0,4.0,76,0.00,,CLR,0.00,VWS V14.01,2013-08-26 02:14:00,
2013-08-25 22:19:00,69.9,62.0,30.19,NE,44,2.0,5.0,76,0.00,,CLR,0.00,VWS V14.01,2013-08-26 02:19:00,
2013-08-25 22:24:00,69.6,62.1,30.19,ENE,61,1.0,5.0,77,0.00,,CLR,0.00,VWS V14.01,2013-08-26 02:24:00,
2013-08-25 22:29:00,69.4,61.9,30.19,East,100,0.0,5.0,77,0.00,,CLR,0.00,VWS V14.01,2013-08-26 02:29:00,
2013-08-25 22:34:00,69.1,62.0,30.19,ENE,58,0.0,1.0,78,0.00,,CLR,0.00,VWS V14.01,2013-08-26 02:34:00,
2013-08-25 22:39:00,68.8,62.0,30.19,NNE,18,1.0,4.0,79,0.00,,CLR,0.00,VWS V14.01,2013-08-26 02:39:00,
2013-08-25 22:44:00,68.4,61.6,30.19,NE,39,0.0,4.0,79,0.00,,CLR,0.00,VWS V14.01,2013-08-26 02:44:00,
2013-08-25 22:49:00,68.2,61.8,30.19,NE,56,1.0,4.0,80,0.00,,CLR,0.00,VWS V14.01,2013-08-26 02:49:00,
2013-08-25 22:54:00,67.9,61.9,30.19,ESE,110,1.0,4.0,81,0.00,,CLR,0.00,VWS V14.01,2013-08-26 02:54:00,
2013-08-25 22:59:00,67.7,61.7,30.19,East,101,0.0,4.0,81,0.00,,CLR,0.00,VWS V14.01,2013-08-26 02:59:00,
2013-08-25 23:04:00,67.5,61.8,30.19,NE,37,2.0,5.0,82,0.00,,CLR,0.00,VWS V14.01,2013-08-26 03:04:00,
2013-08-25 23:09:00,67.5,61.8,30.18,North,11,0.0,5.0,82,0.00,,CLR,0.00,VWS V14.01,2013-08-26 03:09:00,
2013-08-25 23:14:00,67.4,61.7,30.18,NE,41,1.0,5.0,82,0.00,,CLR,0.00,VWS V14.01,2013-08-26 03:14:00,
2013-08-25 23:19:00,67.3,61.6,30.19,NNE,32,2.0,5.0,82,0.00,,CLR,0.00,VWS V14.01,2013-08-26 03:19:00,
2013-08-25 23:24:00,67.2,61.5,30.18,NNE,33,1.0,5.0,82,0.00,,CLR,0.00,VWS V14.01,2013-08-26 03:24:00,
2013-08-25 23:29:00,67.1,61.4,30.18,NNE,33,0.0,5.0,82,0.00,,CLR,0.00,VWS V14.01,2013-08-26 03:29:00,
2013-08-25 23:34:00,67.0,61.7,30.18,ENE,75,1.0,2.0,83,0.00,,CLR,0.00,VWS V14.01,2013-08-26 03:34:00,
2013-08-25 23:39:00,66.8,61.5,30.18,North,6,1.0,3.0,83,0.00,,CLR,0.00,VWS V14.01,2013-08-26 03:39:00,
2013-08-25 23:44:00,66.7,61.4,30.18,NNE,24,3.0,3.0,83,0.00,,CLR,0.00,VWS V14.01,2013-08-26 03:44:00,
2013-08-25 23:49:00,66.6,61.3,30.18,North,3,0.0,3.0,83,0.00,,CLR,0.00,VWS V14.01,2013-08-26 03:49:00,
2013-08-25 23:54:00,66.5,61.2,30.18,NNE,16,0.0,3.0,83,0.00,,CLR,0.00,VWS V14.01,2013-08-26 03:54:00,
2013-08-25 23:59:00,66.4,61.4,30.18,NNE,31,1.0,3.0,84,0.00,,CLR,0.00,VWS V14.01,2013-08-26 03:59:00,